Location: Oberwangen
(47.4286°N, 8.9679°E)
Time: 08:33:17
(UTC+00:00)

Terra - Pass Details

Date: 20 June 2021
Orbit: 701 x 703 km, 98.2° (Epoch: 05 August)

Event Time Altitude Azimuth Distance (km) Brightness Sun altitude
Exits shadow 20:41:04 13° 140° (SE) 1,951 3.4 -10.0°
Maximum altitude 20:45:03 47° 69° (ENE) 929 2.3 -10.4°
Drops below altitude 10° 20:49:37 10° 357° (N) 2,183 5.3 -10.9°
Sets 20:51:57 0° 352° (N) 3,106 6.4 -11.1°
